[[{"header":{"parameterUnit":"m.s-1","parameterCategory":1,"la1":30.2991,"la2":30.254,"lo1":-89.0895,"lo2":-89.0444,"dy":0.0017,"dx":0.0017,"nx":28,"ny":28,"refTime":"2025-12-04T09:00:00:Z","depth":0,"parameterNumber":2,"parameterNumberName":"U-component_of_WINDS"},"data":[0,0,0,0,0,0,0,0,0,0,0,0,0,0,0,0,0,0,0,0,0,0,0,0,0,0,0,0,0,0,0,0,0,0,0,0,0,0,0,0,0,0,0,0,0,0,0,0,0,0,0,0,0,0,0,0,0,0,-4.5855,-4.5856,0,-4.5972,-4.5973,-4.5975,-4.5855,-4.585,-4.5846,-4.5841,-4.5972,-4.598,-4.5988,0,0,0,0,0,0,0,0,0,0,0,0,0,-4.5539,-4.5545,-4.5854,-4.5856,-4.5857,-4.5972,-4.5973,-4.5975,-4.5856,-4.585,-4.5844,-4.5839,-4.597,-4.5979,-4.5988,0,0,0,0,0,0,0,0,0,0,0,0,0,-4.5668,-4.5547,-4.5854,-4.5811,-4.5809,-4.5971,-4.5973,-4.5975,-4.5857,-4.585,-4.5843,-4.5836,-4.5967,-4.5978,-4.599,-4.6203,0,0,-4.6026,-4.6031,0,0,0,0,0,0,0,0,-4.5661,-4.568,-4.5816,-4.5815,-4.5812,-4.5891,-4.591,-4.6052,-4.5859,-4.5839,-4.5841,-4.5833,-4.5952,-4.5964,-4.6002,-4.621,-4.6215,-4.6027,-4.6034,-4.6039,-4.6042,0,0,0,0,0,0,0,-4.5652,-4.5674,-4.5901,-4.5818,-4.5816,-4.579,-4.5801,-4.5936,-4.5934,-4.584,-4.5832,-4.5847,-4.5949,-4.5991,-4.6004,-4.6217,-4.6026,-4.6037,-4.6044,-4.6049,-4.6611,-4.6619,0,0,0,0,0,0,-4.5646,-4.5668,-4.5897,-4.5905,-4.5717,-4.5802,-4.5813,-4.5873,-4.5932,-4.5934,-4.5853,-4.5841,-4.5974,-4.5991,-4.6009,-4.6265,-4.6039,-4.605,-4.6057,-4.6603,-4.6613,-4.6621,0,0,0,0,0,0,-4.564,-4.5668,-4.5893,-4.5784,-4.581,-4.5814,-4.5883,-4.5879,-4.5921,-4.5941,-4.5941,-4.5895,-4.5969,-4.5992,-4.6156,-4.6268,-4.6055,-4.6066,-4.6594,-4.6606,-4.6617,-4.678,0,0,0,0,0,0,-4.5631,-4.5666,-4.5745,-4.5786,-4.5817,-4.6035,-4.5889,-4.5887,-4.594,-4.5926,-4.5981,-4.5984,-4.5966,-4.6139,-4.6168,-4.6281,-4.6075,-4.6584,-4.6599,-4.6613,-4.6764,-4.6795,-4.6822,0,0,0,0,0,-4.5621,-4.5787,-4.5749,-4.5778,-4.5914,-4.6042,-4.6059,-4.6032,-4.5949,-4.603,-4.6044,-4.5982,-4.6251,-4.6157,-4.6188,-4.6306,-4.6577,-4.6595,-4.6612,-4.6751,-4.6789,-4.6821,0,0,0,0,0,0,-4.5761,-4.5792,-4.575,-4.5934,-4.5986,-4.6021,-4.6122,-4.6073,-4.6152,-4.6135,-4.6102,-4.6116,-4.629,-4.6314,-4.6209,-4.6519,-4.6401,-4.6426,-4.6496,-4.6533,-4.6561,-4.6552,-4.6085,0,0,0,0,0,-4.5813,-4.591,-4.5933,-4.6094,-4.6122,-4.6118,-4.6172,-4.6147,-4.6201,-4.6223,-4.6249,-4.6307,-4.6404,-4.647,-4.656,-4.6767,-4.678,-4.6864,-4.6893,-4.6917,-4.6939,-4.7055,-4.7094,-4.6679,-4.6679,-4.6679,0,0,-4.5922,-4.5951,-4.6015,-4.6123,-4.616,-4.6266,-4.6137,-4.6253,-4.6333,-4.6242,-4.6398,-4.642,-4.6482,-4.667,-4.6754,-4.6696,-4.7057,-4.6939,-4.6958,-4.6968,-4.7077,-4.7116,-4.7151,-4.6691,-4.6689,-4.6687,0,0,-4.6175,-4.6205,-4.6343,-4.6383,-4.644,-4.6437,-4.6471,-4.6514,-4.6524,-4.668,-4.6615,-4.6711,-4.6879,-4.6928,-4.6974,-4.725,-4.7197,-4.7281,-4.7433,-4.7546,-4.7578,-4.7607,-4.7709,-4.7745,-4.7303,-4.7303,-4.7304,0,-4.6304,-4.6457,-4.6422,-4.6543,-4.6595,-4.6515,-4.6657,-4.6699,-4.6785,-4.6824,-4.6757,-4.6969,-4.7005,-4.7204,-4.7272,-4.7311,-4.7352,-4.7274,-4.7576,-4.7604,-4.7631,-4.7727,-4.7765,-4.7313,-4.7312,-4.7311,-4.731,0,-4.6615,-4.6723,-4.6828,-4.691,-4.6974,-4.7106,-4.7094,-4.7164,-4.7134,-4.714,-4.7303,-4.7344,-4.7443,-4.7488,-4.7461,-4.7686,-4.7649,-4.758,-4.7461,-4.7681,-4.7771,-4.7808,-4.7327,-4.7324,-4.7321,-4.7318,0,0,-4.6959,-4.702,-4.706,-4.7098,-4.7157,-4.7241,-4.7372,-4.7466,-4.7528,-4.7591,-4.7703,-4.7849,-4.7786,-4.7839,-4.7817,-4.7916,-4.8137,-4.7835,-4.7837,-4.7892,-4.8391,-4.8444,-4.8487,-4.8101,-4.8108,-4.8114,-4.8387,0,-4.7215,-4.7437,-4.7411,-4.7625,-4.7727,-4.7654,-4.7768,-4.782,-4.7829,-4.7921,-4.7932,-4.8037,-4.7945,-4.7977,-4.8071,-4.8089,-4.8237,-4.8069,-4.821,-4.8215,-4.8197,-4.8534,-4.8589,-4.8845,-4.8422,-4.8428,-4.8432,0,-4.7543,-4.7615,-4.7839,-4.7885,-4.7927,-4.803,-4.8116,-4.8202,-4.8261,-4.8262,-4.8323,-4.8285,-4.8422,-4.83,-4.849,-4.8377,-4.8433,-4.8452,-4.8461,-4.8474,-4.8338,-4.8559,-4.8925,-4.8965,-4.8487,-4.8482,-4.8478,0,-4.7774,-4.7928,-4.8083,-4.8117,-4.8174,-4.8249,-4.8277,-4.8328,-4.8388,-4.8465,-4.8504,-4.8598,-4.865,-4.8725,-4.8716,-4.8627,-4.8912,-4.8788,-4.892,-4.8921,-4.8984,-4.898,-4.9367,-4.9017,-4.9017,-4.9016,-4.9015,0,-4.8064,-4.8205,-4.8187,-4.8283,-4.844,-4.8411,-4.8569,-4.8588,-4.8635,-4.8737,-4.8681,-4.8778,-4.8758,-4.8857,-4.8851,-4.9012,-4.9036,-4.9044,-4.9041,-4.905,-4.9049,-4.9087,-4.907,-4.9026,-4.9024,-4.9022,-4.902,0,-4.8349,-4.8342,-4.8507,-4.8547,-4.8561,-4.8676,-4.8712,-4.8805,-4.881,-4.894,-4.8969,-4.898,-4.9094,-4.9091,-4.9221,-4.9217,-4.9416,-4.9392,-4.9395,-4.9391,-4.9524,-4.9513,-4.995,-5.0008,-4.9619,-4.9623,-4.9626,0,-4.8534,-4.8641,-4.8693,-4.8755,-4.8787,-4.8889,-4.8949,-4.8926,-4.8992,-4.9069,-4.9154,-4.9262,-4.9347,-4.9533,-4.9556,-4.9656,-4.9635,-4.9782,-4.965,-4.9657,-4.9641,-4.9636,-4.9648,-4.9808,-4.9813,-4.9816,-4.9819,0,-4.8866,-4.8858,-4.8945,-4.9034,-4.9107,-4.9175,-4.9239,-4.9294,-4.9279,-4.9357,-4.9471,-4.9537,-4.967,-4.978,-4.9877,-4.9911,-4.9866,-4.986,-4.9897,-4.9908,-4.9906,-4.9912,-4.9468,-4.9851,-4.9847,-4.9845,-4.9843,-4.9842,-4.9109,-4.9201,-4.9252,-4.9353,-4.9398,-4.9459,-4.9548,-4.9565,-4.9659,-4.9762,-4.9745,-4.9874,-4.9935,-5.006,-5.0103,-5.0207,-5.0156,-5.0208,-5.0222,-5.0235,-5.0251,-4.9888,-5.0225,-5.0224,-5.0223,-5.0222,-5.0222,0,-4.9439,-4.9469,-4.9562,-4.9651,-4.9732,-4.9678,-4.9746,-4.9818,-4.9931,-4.999,-5.0075,-5.0209,-5.0316,-5.0347,-5.0452,-5.053,-5.0512,-5.0558,-5.0553,-5.0563,-5.0289,-5.0248,-5.0571,-5.0571,-5.0571,-5.0571,-5.0571,-5.0571,-4.9621,-4.9775,-4.9774,-4.9953,-4.9982,-5.0105,-5.015,-5.0208,-5.0255,-5.0405,-5.0493,-5.0511,-5.0561,-5.067,-5.0768,-5.0775,-5.0817,-5.0873,-5.0872,-5.0617,-5.0582,-5.0548,-5.051,-5.0882,-5.0882,-5.1137,-5.1139,-5.1141]},{"header":{"parameterUnit":"m.s-1","parameterCategory":1,"la1":30.2991,"la2":30.254,"lo1":-89.0895,"lo2":-89.0444,"dy":0.0017,"dx":0.0017,"nx":28,"ny":28,"refTime":"2025-12-04T09:00:00:Z","depth":0,"parameterNumber":3,"parameterNumberName":"V-component_of_WINDS"},"data":[0,0,0,0,0,0,0,0,0,0,0,0,0,0,0,0,0,0,0,0,0,0,0,0,0,0,0,0,0,0,0,0,0,0,0,0,0,0,0,0,0,0,0,0,0,0,0,0,0,0,0,0,0,0,0,0,0,0,-2.2739,-2.2738,0,-2.2649,-2.2648,-2.2647,-2.2576,-2.2575,-2.2574,-2.2574,-2.248,-2.2478,-2.2476,0,0,0,0,0,0,0,0,0,0,0,0,0,-2.2844,-2.2843,-2.2739,-2.2738,-2.2737,-2.265,-2.2648,-2.2647,-2.2576,-2.2575,-2.2574,-2.2573,-2.248,-2.2478,-2.2476,0,0,0,0,0,0,0,0,0,0,0,0,0,-2.2781,-2.2842,-2.2739,-2.2691,-2.2686,-2.265,-2.2648,-2.2647,-2.2576,-2.2575,-2.2574,-2.2573,-2.2481,-2.2479,-2.2476,-2.248,0,0,-2.2467,-2.2466,0,0,0,0,0,0,0,0,-2.2785,-2.2777,-2.2699,-2.2694,-2.2688,-2.2623,-2.2651,-2.2591,-2.2576,-2.2618,-2.2574,-2.2572,-2.2528,-2.2521,-2.2507,-2.2476,-2.2472,-2.2467,-2.2465,-2.2464,-2.2464,0,0,0,0,0,0,0,-2.2789,-2.278,-2.2704,-2.2698,-2.2691,-2.2672,-2.2662,-2.2639,-2.258,-2.2614,-2.2609,-2.2599,-2.2525,-2.251,-2.2504,-2.247,-2.2467,-2.2465,-2.2463,-2.2462,-2.2433,-2.2434,0,0,0,0,0,0,-2.2801,-2.2785,-2.2706,-2.2701,-2.2735,-2.2671,-2.266,-2.2645,-2.258,-2.2569,-2.26,-2.2596,-2.2515,-2.2507,-2.2501,-2.2498,-2.2464,-2.2462,-2.246,-2.2432,-2.2433,-2.2434,0,0,0,0,0,0,-2.2804,-2.2795,-2.271,-2.2741,-2.2729,-2.267,-2.2654,-2.2644,-2.2628,-2.2569,-2.2558,-2.2596,-2.2514,-2.2504,-2.2485,-2.2494,-2.2461,-2.2458,-2.2431,-2.2432,-2.2433,-2.2496,0,0,0,0,0,0,-2.2807,-2.2797,-2.2799,-2.2742,-2.2728,-2.2698,-2.2655,-2.2643,-2.2624,-2.2618,-2.2562,-2.2552,-2.2512,-2.2489,-2.2482,-2.249,-2.2456,-2.243,-2.2432,-2.2433,-2.2493,-2.2499,-2.2505,0,0,0,0,0,-2.2811,-2.2821,-2.28,-2.2791,-2.273,-2.2698,-2.269,-2.2645,-2.2625,-2.2626,-2.2587,-2.2554,-2.2494,-2.2488,-2.2479,-2.2486,-2.2429,-2.2431,-2.2433,-2.249,-2.2498,-2.2504,0,0,0,0,0,0,-2.2881,-2.2813,-2.2788,-2.278,-2.2745,-2.2686,-2.2686,-2.2655,-2.2625,-2.262,-2.2564,-2.2552,-2.2538,-2.251,-2.2504,-2.2484,-2.2457,-2.2457,-2.2503,-2.251,-2.2516,-2.2523,-2.2454,0,0,0,0,0,-2.2895,-2.2877,-2.2817,-2.2816,-2.2799,-2.2746,-2.2731,-2.2698,-2.266,-2.2645,-2.2605,-2.2568,-2.2541,-2.2524,-2.2496,-2.2488,-2.2473,-2.2488,-2.2494,-2.2499,-2.25,-2.2489,-2.2494,-2.244,-2.244,-2.244,0,0,-2.2925,-2.2885,-2.2877,-2.2828,-2.2798,-2.2778,-2.2734,-2.2716,-2.27,-2.2642,-2.262,-2.259,-2.2544,-2.253,-2.2521,-2.2506,-2.2511,-2.2502,-2.2506,-2.2504,-2.2492,-2.2497,-2.2502,-2.2442,-2.2441,-2.2441,0,0,-2.2968,-2.2937,-2.2931,-2.29,-2.2854,-2.2818,-2.2817,-2.2761,-2.2738,-2.2716,-2.2671,-2.265,-2.2605,-2.2573,-2.2551,-2.2578,-2.2545,-2.257,-2.2601,-2.2592,-2.2596,-2.2599,-2.2606,-2.261,-2.2571,-2.2571,-2.2571,0,-2.301,-2.298,-2.2931,-2.2914,-2.2893,-2.2839,-2.283,-2.2803,-2.275,-2.2735,-2.2719,-2.2658,-2.2624,-2.2599,-2.2605,-2.2591,-2.2584,-2.2576,-2.26,-2.2602,-2.2605,-2.2611,-2.2614,-2.2575,-2.2574,-2.2574,-2.2574,0,-2.3033,-2.3012,-2.3012,-2.2961,-2.294,-2.2927,-2.2874,-2.2858,-2.2826,-2.2791,-2.2766,-2.2723,-2.2683,-2.2675,-2.2645,-2.2644,-2.2636,-2.261,-2.2582,-2.2614,-2.2618,-2.262,-2.2579,-2.2578,-2.2577,-2.2576,0,0,-2.3119,-2.304,-2.304,-2.3015,-2.2959,-2.2941,-2.2924,-2.2885,-2.287,-2.2835,-2.2817,-2.2778,-2.2753,-2.2728,-2.2693,-2.2685,-2.2704,-2.2659,-2.2657,-2.2667,-2.2697,-2.2716,-2.272,-2.2682,-2.2682,-2.2682,-2.27,0,-2.3152,-2.3121,-2.3074,-2.3057,-2.3035,-2.2982,-2.2966,-2.2929,-2.2894,-2.2869,-2.283,-2.2802,-2.2773,-2.2756,-2.2746,-2.2704,-2.2709,-2.2702,-2.2663,-2.2662,-2.2675,-2.2722,-2.2743,-2.2762,-2.2702,-2.2702,-2.2702,0,-2.3187,-2.3153,-2.3134,-2.3076,-2.3065,-2.3052,-2.301,-2.2988,-2.2942,-2.2917,-2.2888,-2.2849,-2.2825,-2.28,-2.2764,-2.2761,-2.2741,-2.2717,-2.2717,-2.2711,-2.2684,-2.2716,-2.2768,-2.277,-2.2705,-2.2705,-2.2705,0,-2.3249,-2.3199,-2.318,-2.316,-2.3093,-2.3084,-2.3055,-2.3009,-2.2987,-2.295,-2.2934,-2.2895,-2.2873,-2.2842,-2.2792,-2.2779,-2.2761,-2.2732,-2.2737,-2.2739,-2.2736,-2.2737,-2.2784,-2.2726,-2.2726,-2.2726,-2.2726,0,-2.329,-2.328,-2.3207,-2.3195,-2.318,-2.3126,-2.3112,-2.3078,-2.3036,-2.3015,-2.2966,-2.2946,-2.2882,-2.2854,-2.2815,-2.2789,-2.2781,-2.2758,-2.2747,-2.2761,-2.2764,-2.2748,-2.2744,-2.2727,-2.2727,-2.2726,-2.2726,0,-2.3358,-2.3309,-2.3284,-2.3221,-2.3204,-2.3196,-2.3141,-2.3126,-2.3087,-2.306,-2.3051,-2.299,-2.2954,-2.2901,-2.2849,-2.2822,-2.2802,-2.2786,-2.2818,-2.2811,-2.2819,-2.2818,-2.2856,-2.2857,-2.28,-2.2801,-2.2801,0,-2.3387,-2.3377,-2.3313,-2.3295,-2.3268,-2.324,-2.3217,-2.3161,-2.3139,-2.3084,-2.3075,-2.3035,-2.3,-2.2944,-2.2894,-2.2853,-2.2834,-2.285,-2.2828,-2.2841,-2.2832,-2.2832,-2.2829,-2.2856,-2.2857,-2.2857,-2.2858,0,-2.3443,-2.3418,-2.3387,-2.3347,-2.3321,-2.3286,-2.3249,-2.3237,-2.3173,-2.3149,-2.3112,-2.3085,-2.303,-2.299,-2.2941,-2.2909,-2.2871,-2.2865,-2.2864,-2.2878,-2.2896,-2.2884,-2.2831,-2.2865,-2.2864,-2.2863,-2.2863,-2.2863,-2.349,-2.3478,-2.343,-2.3396,-2.3362,-2.3327,-2.3309,-2.3267,-2.3236,-2.3188,-2.3156,-2.3119,-2.3069,-2.3,-2.2969,-2.2937,-2.2922,-2.2921,-2.292,-2.292,-2.2924,-2.2901,-2.2928,-2.2928,-2.2928,-2.2928,-2.2927,0,-2.3542,-2.3507,-2.3477,-2.3426,-2.3398,-2.3366,-2.3322,-2.33,-2.3269,-2.3226,-2.3192,-2.3147,-2.3107,-2.3052,-2.3007,-2.2992,-2.2973,-2.2982,-2.2982,-2.2974,-2.2942,-2.2947,-2.2997,-2.2997,-2.2997,-2.2997,-2.2997,-2.2997,-2.3565,-2.3542,-2.3511,-2.3468,-2.3433,-2.3398,-2.3375,-2.3341,-2.3306,-2.3258,-2.3225,-2.3189,-2.314,-2.309,-2.305,-2.3035,-2.302,-2.3033,-2.3012,-2.2983,-2.2977,-2.2971,-2.2975,-2.3031,-2.3031,-2.3046,-2.3047,-2.3047]}]]